Vorticity
6 10 5 4 13 3 -7 -0 7 5 6 4 4 4 4 6 4 5 3 3 2 3 4 4 4 4 5 6 10 10 7 5 5 4 2 3 5 5 4 4 2 3 4
-17 16 46 12 6 2 5 5 3 2 4 4 4 3 4 5 4 3 3 4 4 2 2 2 3 4 4 4 5 9 10 8 5 4 4 3 3 5 6 3 2 3 3
4 -23 -9 5 2 -0 0 1 2 5 0 -1 0 0 1 1 2 2 1 2 4 4 6 7 5 3 3 4 4 5 8 11 8 4 5 -0 2 3 3 5 3 3 5
-1 -30 -0 3 5 6 6 4 4 2 1 1 2 3 3 2 1 3 3 5 7 8 8 7 7 8 9 4 4 4 4 6 10 10 9 5 3 2 4 3 3 5 2
9 7 1 4 5 3 2 3 2 2 2 2 2 2 2 3 4 5 7 6 6 6 5 5 5 7 2 6 7 4 4 4 4 6 10 9 7 7 3 3 8 4 2
1 2 5 3 3 2 2 2 2 2 2 2 2 3 5 7 7 6 6 7 6 6 6 6 6 7 7 8 5 6 6 3 4 3 3 6 13 8 6 3 2 7 5
3 3 3 3 2 2 2 3 3 5 6 6 7 7 6 7 6 6 5 4 4 4 4 4 3 4 4 5 7 8 6 5 5 4 4 4 4 9 11 8 4 1 5
2 2 1 2 1 2 2 2 4 7 7 6 6 6 6 6 5 3 3 3 3 3 3 3 3 3 3 3 3 4 5 7 7 6 5 5 5 4 6 10 10 8 2
3 3 3 3 2 2 2 3 6 6 6 5 5 5 4 3 3 3 3 2 2 2 2 2 2 2 2 3 3 3 2 3 4 4 6 7 8 5 4 4 8 11 9
7 5 3 3 2 2 3 4 5 4 4 3 4 3 3 3 3 3 3 3 3 3 3 3 3 3 3 2 2 2 2 2 3 3 3 3 6 7 6 5 3 5 10
5 5 4 4 3 3 4 4 4 4 4 4 4 3 4 4 4 4 4 5 5 5 5 6 6 5 5 5 4 4 3 3 3 2 3 3 3 3 5 8 6 6 3
-1 7 6 4 4 3 3 4 4 5 4 4 4 5 5 4 5 5 6 6 6 7 6 6 7 7 8 8 8 8 8 6 5 4 4 4 3 4 3 3 5 7 7
11 7 6 4 4 3 4 5 5 5 5 5 5 5 5 5 6 7 6 6 6 6 7 7 7 7 7 7 7 6 7 7 6 6 7 7 6 4 4 4 3 4 5
5 5 2 3 6 7 5 5 4 4 4 4 4 5 6 6 5 5 6 7 7 8 7 6 5 5 5 6 6 6 6 5 6 7 7 7 5 5 6 5 4 4 4
5 6 5 4 5 5 5 5 6 6 5 5 7 6 5 6 7 8 8 7 6 5 5 6 5 4 4 4 5 5 5 5 5 6 7 7 6 7 7 5 5 5 4
6 5 4 4 4 5 5 5 5 5 6 6 5 6 8 8 7 6 7 7 4 3 4 4 4 4 4 4 4 6 6 6 5 5 4 3 5 6 6 6 8 6 5
6 5 4 5 5 5 5 5 6 6 5 5 6 8 8 4 7 8 6 4 5 4 3 4 5 6 8 9 9 8 8 8 8 8 8 8 7 5 7 7 6 5 9
5 4 4 5 5 5 5 5 5 5 5 7 8 9 4 7 6 5 5 4 4 3 5 8 9 8 7 7 8 9 8 9 9 9 8 8 8 9 11 10 8 8 6
5 4 5 6 5 5 5 5 4 4 7 8 8 4 5 5 5 4 4 2 5 10 9 8 8 8 8 8 10 11 12 11 11 9 9 8 6 5 7 9 9 9 12
5 5 6 6 6 5 5 5 6 7 8 8 5 4 5 4 3 2 3 7 9 7 7 7 6 8 9 8 9 9 10 11 10 11 10 10 9 8 7 9 6 8 13
6 6 7 7 6 6 6 6 7 7 9 7 5 5 5 2 1 3 5 8 6 8 7 7 9 9 10 7 7 7 8 8 7 8 9 10 10 8 8 9 9 6 4
8 7 6 6 6 6 6 6 7 9 8 6 5 5 2 1 2 5 8 7 8 7 9 8 7 7 7 7 6 6 7 6 8 8 8 9 9 9 8 9 9 9 8
6 6 5 5 6 6 6 6 8 10 7 6 5 3 1 -0 4 8 8 8 7 8 8 8 8 7 7 7 8 7 10 7 6 6 8 10 9 10 12 15 11 10 12
4 5 5 6 6 6 6 8 10 8 6 6 4 1 -1 2 6 10 8 7 8 7 8 8 8 7 7 6 7 8 8 9 9 9 5 8 9 13 16 17 18 19 18
4 6 6 6 7 6 7 8 9 7 7 6 1 -1 -0 5 10 9 6 7 7 8 8 7 7 6 7 7 8 8 8 10 12 15 14 11 8 15 15 19 23 24 23
7 9 6 7 7 7 8 9 9 7 7 2 -1 -1 4 9 10 6 7 7 8 8 8 7 7 7 7 8 9 11 13 13 14 14 15 17 19 18 19 16 14 14 14
Height
3153 3153 3154 3154 3153 3154 3155 3155 3155 3158 3160 3161 3161 3161 3162 3161 3162 3161 3161 3161 3160 3159 3159 3159 3158 3158 3157 3157 3157 3157 3157 3158 3158 3158 3159 3159 3160 3160 3160 3160 3160 3160 3160
3150 3150 3151 3152 3153 3151 3152 3153 3155 3158 3159 3160 3161 3161 3161 3162 3162 3162 3162 3161 3160 3160 3159 3159 3159 3159 3158 3158 3158 3157 3157 3158 3158 3159 3159 3159 3160 3161 3161 3162 3163 3162 3161
3151 3146 3144 3151 3153 3155 3154 3155 3158 3159 3160 3160 3160 3161 3161 3162 3162 3162 3161 3161 3160 3160 3159 3159 3159 3159 3159 3159 3158 3158 3157 3157 3157 3158 3159 3159 3159 3160 3161 3162 3163 3163 3163
3151 3151 3150 3153 3155 3156 3157 3158 3158 3160 3160 3161 3161 3161 3161 3161 3161 3161 3160 3159 3159 3159 3159 3158 3158 3158 3158 3159 3159 3159 3158 3158 3157 3157 3158 3157 3159 3160 3161 3161 3162 3162 3162
3151 3151 3153 3154 3156 3158 3158 3158 3159 3159 3159 3160 3160 3160 3160 3160 3160 3160 3159 3158 3158 3158 3158 3158 3157 3157 3157 3158 3158 3158 3158 3158 3157 3156 3156 3156 3158 3159 3160 3161 3162 3162 3161
3152 3153 3154 3154 3155 3157 3158 3158 3159 3159 3159 3159 3159 3159 3159 3159 3159 3159 3158 3158 3157 3157 3157 3157 3156 3157 3157 3157 3158 3157 3157 3157 3156 3156 3155 3155 3155 3156 3157 3159 3160 3161 3161
3152 3154 3154 3155 3155 3156 3157 3157 3158 3158 3158 3157 3158 3158 3158 3158 3158 3158 3158 3157 3157 3157 3157 3156 3156 3156 3155 3156 3156 3156 3156 3155 3155 3155 3154 3154 3154 3154 3155 3156 3157 3158 3159
3150 3152 3153 3154 3154 3155 3156 3156 3156 3156 3156 3156 3156 3157 3157 3157 3157 3157 3156 3157 3156 3155 3155 3155 3154 3154 3154 3154 3154 3154 3154 3154 3153 3153 3152 3154 3154 3154 3153 3153 3154 3155 3156
3149 3150 3152 3152 3154 3154 3155 3154 3154 3153 3154 3154 3155 3155 3155 3155 3155 3155 3155 3155 3155 3154 3154 3153 3153 3153 3152 3152 3151 3151 3150 3151 3151 3151 3151 3151 3151 3151 3151 3152 3151 3151 3151
3147 3148 3149 3150 3152 3152 3152 3152 3152 3152 3153 3153 3153 3153 3154 3153 3154 3153 3153 3153 3152 3152 3151 3150 3150 3150 3149 3148 3148 3148 3147 3148 3147 3146 3147 3147 3148 3147 3147 3148 3148 3148 3148
3143 3146 3147 3148 3150 3149 3150 3150 3150 3151 3151 3151 3151 3151 3151 3151 3151 3150 3150 3150 3149 3149 3148 3147 3147 3146 3146 3145 3144 3143 3143 3143 3143 3143 3143 3143 3143 3143 3143 3143 3143 3144 3144
3140 3142 3143 3144 3145 3146 3147 3147 3148 3147 3148 3148 3148 3148 3147 3147 3147 3147 3145 3145 3144 3143 3143 3142 3142 3141 3140 3140 3140 3139 3139 3138 3137 3137 3137 3137 3138 3137 3138 3138 3138 3138 3138
3137 3138 3139 3141 3142 3142 3142 3143 3143 3143 3144 3144 3144 3144 3144 3143 3143 3141 3140 3139 3139 3139 3139 3138 3137 3137 3135 3135 3134 3133 3133 3133 3133 3133 3132 3131 3131 3130 3130 3131 3131 3132 3132
3133 3134 3136 3137 3138 3137 3138 3139 3139 3139 3140 3140 3140 3139 3138 3137 3137 3136 3136 3136 3136 3135 3134 3133 3132 3131 3130 3129 3128 3127 3126 3126 3125 3125 3125 3125 3124 3124 3123 3123 3124 3125 3125
3130 3132 3132 3133 3133 3134 3134 3135 3136 3137 3136 3135 3135 3134 3133 3134 3133 3133 3133 3132 3130 3129 3128 3127 3126 3125 3123 3122 3120 3119 3119 3119 3118 3116 3117 3116 3115 3115 3115 3114 3114 3114 3115
3126 3127 3127 3128 3128 3129 3130 3131 3131 3130 3131 3131 3130 3130 3130 3130 3129 3128 3127 3126 3124 3123 3121 3120 3119 3117 3115 3114 3113 3112 3111 3110 3109 3107 3106 3106 3107 3106 3105 3104 3103 3103 3102
3121 3121 3121 3123 3123 3124 3125 3125 3126 3126 3126 3126 3126 3125 3124 3124 3123 3121 3120 3119 3118 3116 3114 3112 3111 3109 3107 3106 3105 3103 3102 3101 3099 3099 3096 3095 3095 3094 3094 3094 3093 3090 3088
3114 3116 3116 3117 3118 3119 3119 3120 3120 3120 3120 3120 3120 3119 3119 3118 3116 3116 3114 3113 3111 3109 3107 3104 3102 3101 3098 3096 3096 3094 3094 3092 3090 3087 3085 3084 3083 3084 3084 3081 3078 3079 3083
3109 3110 3111 3112 3112 3113 3113 3113 3113 3114 3114 3114 3113 3113 3112 3112 3110 3109 3108 3106 3103 3100 3097 3095 3093 3090 3089 3087 3085 3084 3084 3082 3081 3075 3075 3075 3072 3070 3069 3067 3065 3067 3067
3102 3103 3105 3106 3106 3107 3107 3107 3108 3108 3108 3107 3107 3107 3106 3105 3103 3102 3100 3098 3095 3092 3089 3086 3085 3083 3078 3075 3075 3073 3073 3072 3068 3066 3066 3062 3061 3060 3055 3050 3052 3054 3055
3095 3097 3098 3099 3100 3101 3101 3102 3102 3102 3102 3102 3102 3102 3101 3099 3098 3095 3092 3090 3087 3085 3082 3078 3075 3073 3072 3063 3058 3058 3060 3060 3056 3054 3053 3051 3049 3046 3044 3041 3038 3036 3036
3088 3089 3091 3092 3094 3094 3095 3095 3096 3096 3096 3096 3096 3095 3094 3093 3090 3087 3084 3082 3080 3078 3074 3070 3065 3062 3059 3053 3045 3042 3036 3044 3045 3043 3038 3037 3035 3032 3030 3027 3024 3021 3020
3079 3082 3083 3085 3087 3087 3088 3088 3089 3089 3090 3090 3089 3088 3087 3084 3082 3079 3076 3074 3070 3067 3065 3061 3055 3051 3046 3046 3041 3033 3022 3018 3013 3015 3019 3022 3019 3015 3011 3009 3007 3003 3001
3072 3074 3075 3078 3079 3080 3081 3081 3081 3082 3082 3082 3082 3081 3079 3076 3073 3071 3069 3066 3063 3059 3054 3048 3045 3040 3035 3029 3026 3024 3020 3012 3002 2994 2994 2992 2990 2991 2994 2991 2987 2985 2985
3062 3065 3068 3069 3071 3072 3073 3073 3074 3074 3075 3074 3075 3073 3070 3068 3065 3062 3060 3056 3052 3047 3042 3036 3031 3027 3023 3016 3013 3008 3005 3000 2997 2990 2978 2979 2976 2972 2970 2968 2969 2966 2965
3053 3056 3059 3061 3063 3064 3065 3066 3066 3066 3067 3067 3066 3065 3063 3061 3057 3053 3049 3045 3040 3036 3031 3025 3021 3017 3011 3007 3002 2998 2993 2986 2981 2974 2967 2963 2958 2962 2956 2954 2951 2952 2952